Franklin, PA

1:50 PM EST on November 22, 2019 (GMT -0500)
Venango Regional

Weather History for KFKL - June, 2019

Change the Weather History Date:

Friday, June 14, 2019

  Actual Average Record
Temperature  
Mean Temperature 58 °F -  
Max Temperature 68 °F 78 °F 93 °F (1931)
Min Temperature 48 °F 53 °F 36 °F (1978)
Degree Days  
Heating Degree Days 7    
Growing Degree Days 8 (Base 50)    
Moisture  
Dew Point 47 °F    
Average Humidity 72    
Maximum Humidity 97    
Minimum Humidity 43    
Precipitation  
Precipitation 0.08 in - - ()
Sea Level Pressure  
Sea Level Pressure 29.99 in    
Wind  
Wind Speed 10 mph (West)    
Max Wind Speed 17 mph    
Max Gust Speed 26 mph    
Visibility 10 miles    
Events Rain    
Averages and records for this station are not official NWS values.
T = Trace of Precipitation, MM = Missing Value Source: NWS Daily Summary

Daily Weather History Graph

Daily Weather History Graph

Search for Another Location

Airport or City:

Astronomy

Jun. 14, 2019 Rise Set
Actual Time 5:45 AM EDT 8:54 PM EDT
Civil Twilight 5:11 AM EDT 9:28 PM EDT
Nautical Twilight 4:28 AM EDT 10:11 PM EDT
Astronomical Twilight 3:36 AM EDT 11:03 PM EDT
Moon 6:12 PM EDT (6/14) 4:04 AM EDT (6/14)
Length of Visible Light 16h 16m
Length of Day
15h 08m
Waxing Gibbous, 92% of the Moon is Illuminated
Jun 14
Waxing Gibbous
Jun 17
Full
Jun 25
Last Quarter
Jul 2
New
Jul 9
First Quarter

Hourly Weather History & Observations

Time (EDT) Temp. Dew Point Humidity Pressure Visibility Wind Dir Wind Speed Gust Speed Precip Events Conditions
12:56 AM 51.1 °F 50.0 °F 96% 29.79 in 9.0 mi West 6.9 mph - 0.02 in Rain Light Rain
1:29 AM 51.8 °F 50.0 °F 94% 29.80 in 10.0 mi Variable 6.9 mph 17.3 mph 0.02 in Rain Light Rain
1:56 AM 51.1 °F 50.0 °F 96% 29.82 in 10.0 mi WNW 8.1 mph 17.3 mph 0.04 in Rain Light Rain
2:56 AM 50.0 °F 48.9 °F 96% 29.85 in 10.0 mi WNW 12.7 mph 23.0 mph 0.02 in Rain Light Rain
3:56 AM 50.0 °F 48.0 °F 93% 29.88 in 10.0 mi WNW 9.2 mph 20.7 mph 0.00 in Rain Light Rain
4:32 AM 50.0 °F 46.4 °F 87% 29.90 in 10.0 mi WNW 9.2 mph 20.7 mph 0.00 in   Overcast
4:38 AM 48.2 °F 46.4 °F 93% 29.90 in 10.0 mi WNW 12.7 mph - 0.00 in   Overcast
4:45 AM 48.2 °F 46.4 °F 93% 29.91 in 10.0 mi WNW 12.7 mph 17.3 mph 0.00 in   Overcast
4:56 AM 48.9 °F 46.9 °F 93% 29.92 in 10.0 mi WNW 10.4 mph 17.3 mph 0.00 in   Overcast
5:56 AM 48.9 °F 48.0 °F 97% 29.96 in 10.0 mi West 9.2 mph - N/A   Overcast
6:14 AM 50.0 °F 48.2 °F 94% 29.95 in 10.0 mi West 10.4 mph 17.3 mph N/A   Overcast
6:56 AM 50.0 °F 48.0 °F 93% 29.98 in 10.0 mi West 11.5 mph - N/A   Overcast
7:33 AM 51.8 °F 48.2 °F 88% 29.99 in 10.0 mi West 8.1 mph - N/A   Mostly Cloudy
7:56 AM 53.1 °F 48.0 °F 83% 30.01 in 10.0 mi West 11.5 mph 18.4 mph N/A   Partly Cloudy
8:56 AM 55.0 °F 46.9 °F 74% 30.04 in 10.0 mi West 15.0 mph - N/A   Clear
9:56 AM 59.0 °F 46.0 °F 62% 30.05 in 10.0 mi West 16.1 mph 20.7 mph N/A   Clear
10:56 AM 61.0 °F 46.9 °F 60% 30.07 in 10.0 mi WNW 10.4 mph 24.2 mph N/A   Scattered Clouds
11:56 AM 62.1 °F 46.0 °F 56% 30.09 in 10.0 mi West 17.3 mph 26.5 mph N/A   Scattered Clouds
12:56 PM 63.0 °F 44.1 °F 50% 30.09 in 10.0 mi West 16.1 mph - N/A   Partly Cloudy
1:56 PM 66.0 °F 44.1 °F 45% 30.09 in 10.0 mi WSW 12.7 mph 18.4 mph N/A   Scattered Clouds
2:56 PM 68.0 °F 45.0 °F 43% 30.09 in 10.0 mi West 12.7 mph 20.7 mph N/A   Mostly Cloudy
3:56 PM 68.0 °F 46.0 °F 45% 30.09 in 10.0 mi West 12.7 mph - N/A   Mostly Cloudy
4:56 PM 68.0 °F 46.0 °F 45% 30.08 in 10.0 mi West 9.2 mph - N/A   Partly Cloudy
5:56 PM 68.0 °F 45.0 °F 43% - 10.0 mi WSW 10.4 mph 16.1 mph N/A   Clear
6:28 PM 68.0 °F 46.4 °F 46% 30.06 in 10.0 mi West 10.4 mph - N/A   Partly Cloudy
6:56 PM 66.9 °F 46.0 °F 47% 30.05 in 10.0 mi WSW 9.2 mph - N/A   Partly Cloudy
7:56 PM 63.0 °F 46.0 °F 54% 30.06 in 10.0 mi SSW 5.8 mph - N/A   Clear
8:56 PM 61.0 °F 46.0 °F 58% 30.06 in 10.0 mi SW 6.9 mph - N/A   Clear
9:56 PM 57.0 °F 46.0 °F 67% 30.08 in 10.0 mi SSW 6.9 mph - N/A   Clear